Main page
Satellite images Climate Cyclones Lightning AirportsFAQ Languages Contact Newsletter About
Weather : Europe Africa North America South America Asia Australia-Oceania Others

, Phrae, Phrae Airport

48330

latitude: , longitude: Thailand, elevation: 18-10N m


METAR: VTCP 200300Z 23006KT 190V260 7000 SCT025 30/25 Q1007 NOSIG